This demonstration page uses our WeatherBlox Daily Observations layout. Learn more.

Left ArrowRight Arrow

39.92423, -83.80882

Hourly Observations for February 21, 2021

Temp ( °F °C ) Dew Point ( °F °C ) Humidity (%) Winds ( mph kmh ) Pressure ( in mb ) Visibility ( mi km ) Precip ( " mm )
12:56 am 00:56 Clear 11 -11.7 7 -13.9 84 84 SE 7 11 30.50 1033 10 16 0.00 0.00
1:56 am 01:56 Clear 13 -10.6 10 -12.2 88 88 SSE 7 11 30.49 1033 10 16 0.00 0.00
2:56 am 02:56 Clear 13 -10.6 9 -12.8 84 84 SSE 8 13 30.49 1033 10 16 0.00 0.00
3:56 am 03:56 Clear 12 -11.1 9 -12.8 87 87 SSE 8 13 30.49 1033 10 16 0.00 0.00
4:56 am 04:56 Clear 11 -11.7 8 -13.3 88 88 ESE 8 13 30.48 1032 10 16 0.00 0.00
5:56 am 05:56 Clear 13 -10.6 11 -11.7 92 92 SE 7 11 30.48 1032 10 16 0.00 0.00
6:56 am 06:56 Clear 10 -12.2 9 -12.8 95 95 SE 7 11 30.49 1033 10 16 0.00 0.00
7:56 am 07:56 Sunny 12 -11.1 11 -11.7 95 95 SE 9 15 30.49 1033 7 11 0.00 0.00
8:56 am 08:56 Sunny 17 -8.3 15 -9.4 92 92 SE 9 15 30.49 1033 9 14 0.00 0.00
9:56 am 09:56 Sunny 20 -6.7 16 -8.9 85 85 SE 13 20 30.49 1033 10 16 0.00 0.00
10:56 am 10:56 Sunny 21 -6.1 16 -8.9 81 81 SE 12 19 30.48 1032 10 16 0.00 0.00
11:56 am 11:56 Sunny 23 -5 17 -8.3 78 78 ESE 13 20 30.46 1031 10 16 0.00 0.00
12:56 pm 12:56 Sunny 26 -3.3 18 -7.8 71 71 SE 15 24 30.41 1030 10 16 0.00 0.00
1:56 pm 13:56 Sunny 28 -2.2 20 -6.7 72 72 SE 15 24 30.37 1028 10 16 0.00 0.00
2:56 pm 14:56 Sunny 31 -0.6 20 -6.7 64 64 SE 14 22 30.33 1027 10 16 0.00 0.00
3:56 pm 15:56 Sunny 31 -0.6 21 -6.1 67 67 SE 16 26 30.28 1025 10 16 0.00 0.00
4:56 pm 16:56 Sunny 31 -0.6 21 -6.1 67 67 ESE 13 20 30.25 1024 10 16 0.00 0.00
5:56 pm 17:56 Sunny 31 -0.6 22 -5.6 69 69 SE 16 26 30.22 1023 10 16 0.00 0.00
6:56 pm 18:56 Clear 33 0.6 23 -5 66 66 SE 13 20 30.20 1023 10 16 0.00 0.00
7:56 pm 19:56 Partly Cloudy 34 1.1 25 -3.9 70 70 SE 17 28 30.18 1022 10 16 0.00 0.00
8:56 pm 20:56 Partly Cloudy 33 0.6 26 -3.3 75 75 SE 16 26 30.13 1020 10 16 0.00 0.00
9:56 pm 21:56 Cloudy 34 1.1 27 -2.8 76 76 SE 20 31 30.08 1019 10 16 0.00 0.00
10:56 pm 22:56 Cloudy with Light Rain 36 2.2 26 -3.3 67 67 S 9 15 30.07 1018 10 16 0.00 0.00
11:56 pm 23:56 Cloudy with Light Rain 39 3.9 27 -2.8 62 62 SSE 14 22 29.99 1016 10 16 0.00 0.00

Powered by AerisWeather